Temp
3 2 2 1 0 0 -0 -0 -1 -1 -1 -2 -2 -2 -3 -3 -3 -3 -3 -3 -3 -3 -3 -3 -3 -3 -3 -4 -4 -3 -4 -4 -4 -4 -5 -5 -5 -6 -6 -6 -5 -5
2 2 2 1 0 0 -0 -0 -1 -1 -1 -2 -2 -2 -3 -3 -3 -3 -4 -4 -3 -3 -3 -3 -4 -4 -4 -4 -4 -4 -4 -4 -4 -5 -5 -5 -5 -6 -6 -6 -6 -6
1 1 1 1 0 0 0 -0 -1 -1 -1 -2 -2 -2 -3 -3 -3 -3 -3 -3 -3 -3 -3 -3 -3 -4 -4 -4 -4 -4 -4 -5 -5 -5 -5 -5 -5 -6 -6 -6 -6 -6
1 1 1 1 0 0 -0 -1 -1 -1 -1 -2 -2 -2 -3 -3 -3 -3 -3 -3 -3 -3 -3 -3 -3 -4 -4 -4 -4 -4 -4 -4 -5 -5 -5 -5 -5 -5 -5 -6 -6 -6
1 1 0 0 0 -0 -0 -1 -1 -1 -1 -1 -2 -2 -2 -2 -2 -2 -2 -3 -3 -3 -3 -3 -4 -4 -4 -4 -4 -4 -4 -4 -5 -5 -5 -5 -5 -5 -5 -5 -6 -6
1 0 0 0 -0 -0 -0 -1 -1 -1 -1 -1 -2 -2 -2 -2 -2 -2 -2 -2 -2 -3 -3 -3 -3 -3 -3 -4 -4 -4 -4 -4 -4 -5 -5 -5 -5 -5 -5 -6 -6 -6
-0 -0 -0 -1 -1 -1 -1 -1 -1 -1 -2 -2 -2 -2 -2 -2 -2 -2 -2 -2 -2 -3 -3 -3 -3 -3 -3 -3 -3 -3 -4 -4 -4 -5 -5 -5 -5 -6 -6 -6 -6 -6
-1 -1 -1 -1 -1 -2 -2 -2 -2 -2 -2 -2 -2 -2 -2 -2 -2 -2 -2 -3 -3 -3 -3 -3 -3 -3 -3 -4 -3 -4 -4 -4 -4 -5 -5 -5 -6 -6 -6 -6 -6 -6
-2 -2 -2 -2 -2 -2 -2 -2 -3 -3 -3 -3 -3 -3 -2 -2 -2 -2 -2 -3 -3 -3 -3 -3 -3 -3 -3 -3 -3 -4 -4 -4 -4 -5 -5 -5 -5 -6 -6 -6 -6 -6
-3 -3 -3 -3 -3 -3 -3 -3 -3 -3 -3 -3 -3 -3 -3 -3 -3 -3 -3 -3 -3 -3 -3 -3 -3 -3 -3 -3 -4 -4 -4 -4 -4 -5 -5 -5 -5 -6 -6 -7 -7 -7
-4 -4 -4 -4 -4 -4 -4 -4 -3 -3 -3 -3 -3 -3 -3 -3 -4 -4 -4 -4 -4 -4 -4 -4 -4 -4 -4 -4 -4 -4 -4 -5 -5 -5 -5 -5 -5 -6 -6 -7 -7 -7
-4 -4 -4 -4 -4 -4 -4 -4 -4 -4 -4 -4 -4 -4 -4 -4 -4 -5 -5 -5 -5 -5 -5 -5 -5 -5 -5 -5 -5 -5 -5 -5 -6 -6 -6 -6 -6 -6 -7 -7 -7 -7
-5 -5 -5 -5 -5 -5 -5 -5 -5 -5 -5 -5 -5 -5 -5 -5 -5 -5 -5 -5 -5 -6 -6 -6 -6 -6 -6 -6 -6 -6 -6 -6 -6 -6 -6 -7 -7 -7 -8 -8 -8 -8
-6 -6 -6 -6 -6 -6 -6 -6 -6 -6 -6 -6 -6 -6 -6 -6 -6 -6 -7 -7 -7 -7 -7 -7 -7 -7 -7 -7 -7 -7 -7 -7 -7 -7 -7 -7 -7 -7 -8 -8 -9 -9
-7 -7 -6 -6 -7 -7 -7 -7 -7 -7 -7 -7 -7 -7 -7 -7 -7 -7 -8 -8 -8 -8 -8 -8 -8 -8 -8 -8 -8 -8 -8 -8 -8 -8 -8 -7 -8 -8 -8 -9 -9 -10
-7 -7 -7 -7 -8 -8 -8 -8 -8 -8 -8 -8 -8 -8 -8 -8 -8 -8 -8 -8 -8 -8 -8 -9 -9 -9 -9 -9 -9 -9 -9 -9 -9 -9 -9 -9 -9 -9 -9 -9 -9 -10
-8 -8 -8 -9 -9 -9 -9 -9 -9 -9 -9 -9 -9 -9 -9 -9 -9 -9 -9 -9 -9 -9 -9 -9 -9 -9 -10 -10 -10 -10 -10 -10 -10 -10 -10 -10 -10 -10 -10 -10 -10 -10
-9 -9 -9 -9 -9 -10 -10 -10 -10 -10 -10 -10 -10 -10 -10 -10 -10 -10 -10 -10 -10 -10 -10 -10 -10 -10 -10 -10 -11 -11 -11 -11 -11 -11 -11 -11 -11 -11 -11 -11 -11 -12
-10 -10 -10 -10 -10 -11 -10 -10 -10 -10 -11 -10 -11 -11 -11 -10 -10 -11 -11 -11 -11 -11 -11 -11 -11 -11 -11 -11 -11 -11 -12 -12 -12 -12 -12 -12 -12 -12 -12 -12 -12 -13
-11 -11 -11 -11 -11 -11 -11 -11 -11 -11 -11 -11 -11 -12 -12 -11 -11 -11 -12 -12 -12 -12 -12 -12 -12 -12 -12 -12 -12 -12 -13 -13 -12 -12 -12 -13 -13 -13 -13 -13 -13 -13
-12 -12 -12 -12 -12 -12 -12 -12 -12 -12 -12 -12 -12 -12 -12 -12 -12 -12 -12 -13 -13 -13 -13 -13 -13 -13 -13 -13 -13 -13 -14 -14 -13 -13 -13 -13 -13 -13 -13 -14 -14 -14
-13 -13 -13 -13 -13 -13 -13 -13 -13 -13 -13 -13 -13 -13 -13 -13 -13 -14 -14 -14 -14 -14 -14 -14 -14 -14 -14 -14 -14 -14 -14 -14 -14 -14 -14 -14 -14 -14 -14 -14 -15 -15
-14 -13 -13 -13 -14 -14 -14 -14 -14 -14 -14 -14 -14 -14 -14 -14 -14 -14 -15 -15 -15 -15 -15 -15 -15 -15 -15 -15 -15 -15 -15 -15 -15 -15 -14 -14 -14 -15 -15 -15 -15 -15
-14 -14 -14 -14 -14 -15 -15 -15 -15 -15 -15 -15 -15 -15 -15 -15 -15 -15 -15 -15 -16 -16 -16 -15 -15 -15 -16 -16 -16 -16 -16 -16 -16 -16 -16 -15 -15 -15 -15 -15 -16 -16
-15 -15 -15 -15 -15 -15 -15 -15 -16 -16 -16 -16 -16 -16 -16 -16 -16 -16 -16 -16 -16 -16 -16 -16 -16 -16 -16 -17 -17 -17 -17 -17 -17 -17 -17 -16 -16 -16 -16 -16 -16 -16
-15 -15 -16 -16 -16 -16 -16 -16 -16 -17 -17 -17 -17 -17 -17 -17 -17 -17 -17 -17 -17 -17 -17 -17 -17 -17 -17 -18 -18 -18 -18 -18 -18 -18 -18 -18 -18 -17 -17 -17 -17 -17
Height
1423 1424 1425 1426 1427 1427 1428 1428 1428 1429 1429 1429 1430 1431 1433 1432 1432 1432 1432 1432 1431 1431 1431 1432 1432 1432 1432 1432 1432 1432 1432 1433 1433 1433 1434 1434 1435 1436 1437 1438 1440 1441
1421 1422 1423 1424 1425 1426 1426 1426 1426 1427 1427 1427 1427 1428 1430 1429 1429 1429 1429 1429 1428 1428 1429 1429 1429 1429 1429 1429 1429 1429 1429 1429 1429 1430 1430 1430 1431 1432 1432 1434 1435 1436
1420 1421 1421 1422 1424 1425 1425 1425 1425 1425 1426 1426 1426 1427 1427 1427 1426 1426 1426 1426 1426 1426 1426 1427 1427 1427 1426 1426 1426 1426 1426 1426 1427 1428 1427 1427 1428 1428 1429 1430 1431 1432
1419 1419 1420 1421 1422 1423 1424 1424 1424 1425 1425 1426 1426 1426 1426 1426 1425 1425 1425 1424 1423 1423 1423 1424 1424 1424 1423 1423 1423 1423 1423 1424 1424 1425 1425 1424 1425 1425 1426 1427 1427 1428
1418 1418 1419 1420 1420 1421 1422 1423 1423 1424 1424 1424 1425 1425 1425 1424 1424 1423 1423 1422 1422 1422 1422 1422 1422 1421 1421 1420 1420 1420 1420 1421 1421 1422 1422 1421 1423 1423 1423 1424 1423 1424
1417 1417 1418 1418 1418 1419 1420 1421 1421 1421 1422 1422 1422 1422 1422 1422 1421 1421 1421 1420 1420 1420 1420 1420 1420 1419 1418 1417 1417 1416 1417 1418 1418 1419 1418 1418 1419 1420 1420 1420 1420 1420
1415 1416 1416 1416 1417 1417 1418 1419 1419 1419 1420 1420 1419 1419 1419 1419 1419 1418 1418 1417 1417 1418 1418 1418 1417 1417 1416 1415 1414 1414 1414 1415 1415 1416 1415 1415 1415 1416 1416 1417 1416 1416
1414 1414 1415 1415 1415 1416 1416 1417 1417 1417 1418 1417 1417 1417 1417 1416 1416 1415 1415 1415 1415 1415 1415 1415 1414 1413 1413 1412 1411 1411 1411 1411 1412 1412 1411 1411 1412 1412 1413 1414 1413 1413
1413 1413 1414 1414 1414 1415 1415 1415 1415 1415 1415 1415 1415 1415 1414 1414 1413 1413 1413 1412 1412 1412 1412 1411 1411 1410 1410 1409 1408 1408 1408 1408 1408 1408 1408 1407 1407 1407 1408 1409 1409 1408
1412 1412 1413 1413 1413 1413 1414 1414 1413 1413 1413 1413 1412 1412 1412 1411 1411 1411 1411 1410 1410 1409 1409 1408 1407 1407 1406 1406 1405 1405 1404 1404 1404 1404 1404 1403 1403 1403 1404 1404 1404 1403
1411 1412 1412 1412 1412 1412 1412 1412 1412 1411 1411 1410 1410 1410 1410 1410 1409 1409 1408 1407 1407 1406 1405 1405 1404 1403 1403 1402 1402 1401 1401 1401 1401 1400 1400 1400 1399 1399 1399 1399 1399 1399
1410 1410 1410 1411 1411 1411 1411 1410 1410 1409 1409 1408 1408 1408 1408 1407 1407 1406 1405 1405 1404 1403 1402 1401 1401 1400 1399 1399 1398 1398 1397 1397 1397 1396 1396 1396 1395 1395 1395 1395 1395 1394
1409 1409 1409 1409 1409 1409 1409 1408 1408 1407 1407 1406 1405 1405 1404 1404 1403 1403 1402 1401 1400 1400 1399 1398 1398 1397 1396 1395 1395 1394 1394 1393 1392 1392 1391 1391 1391 1391 1391 1390 1390 1390
1407 1406 1406 1406 1406 1406 1406 1406 1405 1405 1404 1403 1402 1401 1401 1400 1400 1399 1399 1398 1397 1396 1395 1395 1394 1393 1393 1392 1391 1390 1390 1389 1388 1387 1386 1386 1386 1386 1386 1385 1385 1385
1404 1404 1404 1404 1404 1404 1404 1404 1403 1403 1402 1401 1400 1399 1398 1397 1396 1396 1395 1394 1394 1392 1392 1391 1390 1390 1389 1388 1387 1386 1385 1384 1384 1383 1382 1382 1381 1381 1381 1380 1380 1380
1403 1402 1402 1402 1402 1402 1402 1401 1401 1400 1399 1398 1397 1396 1395 1394 1393 1392 1391 1391 1390 1390 1389 1388 1387 1386 1385 1384 1383 1382 1381 1380 1379 1379 1378 1377 1377 1376 1376 1375 1375 1375
1401 1401 1401 1400 1400 1399 1399 1398 1398 1397 1396 1395 1394 1393 1392 1391 1389 1389 1388 1387 1386 1386 1385 1385 1384 1383 1382 1381 1380 1379 1377 1376 1375 1374 1373 1373 1372 1371 1371 1371 1370 1370
1400 1400 1399 1399 1398 1397 1396 1395 1395 1394 1393 1392 1391 1390 1389 1388 1387 1386 1385 1383 1382 1382 1381 1380 1380 1379 1378 1377 1376 1375 1374 1373 1371 1370 1369 1368 1368 1368 1367 1366 1366 1365
1399 1399 1398 1397 1396 1395 1394 1393 1392 1391 1390 1390 1389 1388 1387 1386 1384 1383 1382 1381 1379 1378 1377 1377 1376 1375 1374 1374 1373 1372 1371 1369 1367 1366 1365 1364 1364 1364 1363 1362 1362 1361
1397 1397 1396 1395 1394 1393 1392 1391 1390 1389 1388 1387 1386 1385 1384 1383 1382 1380 1379 1378 1377 1375 1374 1374 1373 1372 1371 1371 1370 1369 1368 1366 1364 1362 1362 1361 1360 1360 1359 1359 1358 1357
1395 1394 1393 1392 1391 1391 1389 1388 1387 1386 1385 1384 1383 1382 1381 1379 1378 1377 1376 1375 1374 1373 1371 1371 1370 1369 1368 1367 1366 1365 1364 1362 1360 1359 1359 1358 1357 1357 1356 1355 1354 1353
1392 1391 1390 1389 1388 1387 1386 1385 1384 1383 1382 1381 1380 1379 1378 1376 1375 1374 1373 1372 1371 1370 1368 1367 1367 1366 1365 1364 1363 1362 1361 1358 1357 1356 1356 1355 1354 1353 1353 1351 1351 1350
1389 1388 1387 1386 1385 1384 1383 1382 1381 1380 1379 1377 1376 1375 1374 1373 1372 1371 1370 1369 1367 1366 1365 1364 1364 1363 1362 1360 1359 1359 1357 1354 1353 1352 1352 1351 1351 1350 1349 1348 1347 1346
1387 1386 1384 1383 1382 1381 1379 1378 1377 1376 1375 1374 1372 1371 1370 1369 1368 1367 1366 1365 1364 1363 1361 1360 1360 1359 1358 1357 1356 1355 1353 1351 1349 1348 1347 1347 1346 1346 1345 1344 1344 1343
1385 1383 1382 1380 1379 1377 1376 1375 1374 1373 1372 1371 1369 1367 1366 1365 1364 1363 1362 1362 1361 1360 1359 1358 1356 1356 1355 1353 1352 1351 1349 1347 1345 1344 1343 1342 1341 1341 1340 1340 1340 1339
1382 1380 1379 1377 1376 1374 1374 1373 1371 1370 1369 1367 1366 1365 1364 1363 1362 1360 1359 1359 1358 1357 1356 1355 1353 1352 1351 1350 1348 1347 1346 1344 1342 1340 1339 1338 1337 1336 1335 1335 1335 1334
Wind_Speed
14 14 14 14 13 13 14 13 13 13 12 12 12 11 12 11 11 12 13 13 13 14 14 14 14 15 16 17 18 20 20 21 21 22 25 29 33 36 40 42 43 44
16 16 16 16 16 16 16 16 16 15 14 14 13 13 12 12 12 12 12 12 12 12 11 12 12 13 14 15 16 17 18 19 19 19 21 24 26 30 35 37 39 41
15 16 17 17 17 18 18 18 18 17 17 16 15 15 15 14 14 14 13 13 12 12 12 12 12 12 12 13 14 16 17 17 18 17 19 21 22 24 28 30 34 36
15 16 17 18 18 18 19 19 18 18 18 17 16 17 17 16 16 16 15 15 14 14 13 13 13 12 12 12 14 15 16 17 17 16 18 20 20 21 22 24 27 29
15 16 17 17 17 17 18 18 18 19 18 18 18 19 19 18 18 18 18 18 17 17 16 16 15 14 14 14 15 16 16 17 17 17 19 21 20 21 22 22 24 26
14 14 15 15 15 16 16 17 17 18 18 18 19 19 19 19 19 19 19 19 19 19 19 19 19 18 17 17 17 18 18 18 18 18 21 22 21 22 22 23 25 26
12 12 12 12 13 13 13 14 15 15 15 16 16 16 16 17 17 17 17 18 18 19 20 20 20 20 19 20 20 21 21 21 20 21 22 23 23 23 23 24 26 27
9 8 8 8 8 8 9 9 10 10 11 11 11 12 13 13 14 14 15 16 17 17 18 19 20 20 20 21 22 23 23 23 23 23 24 25 25 25 25 25 27 29
5 5 5 5 5 6 6 7 8 9 9 10 10 11 13 14 15 16 16 17 18 18 19 19 20 21 21 22 23 24 25 25 26 26 27 28 28 28 27 27 28 30
4 4 4 5 6 7 8 9 10 11 11 12 13 14 15 16 18 18 19 20 20 21 21 21 22 22 23 23 24 25 27 27 28 29 30 31 31 31 31 30 31 32
4 5 6 7 8 10 11 12 13 14 15 15 16 17 17 18 19 20 20 21 22 22 23 23 23 24 24 24 25 26 28 29 30 31 32 32 34 34 33 33 34 34
6 7 9 10 11 12 13 14 15 16 17 17 18 18 19 19 20 20 21 22 22 23 24 24 24 25 25 26 26 27 28 29 30 31 32 33 34 35 35 35 36 36
10 11 12 13 14 15 15 16 16 17 18 18 19 20 20 20 20 21 22 22 23 24 24 25 25 25 26 26 27 28 28 30 31 31 32 33 34 34 35 35 36 36
13 14 14 15 16 16 17 17 17 18 18 19 20 20 20 21 21 21 21 22 23 23 23 24 24 24 25 25 26 27 28 30 31 32 34 34 35 35 35 35 36 36
14 15 15 16 16 16 17 17 18 18 18 19 19 20 20 21 21 21 21 21 22 22 23 23 23 23 23 24 25 26 27 28 30 31 33 34 35 36 36 36 36 36
15 16 16 16 17 17 17 18 18 18 19 19 19 20 20 21 21 21 21 22 22 22 22 22 22 22 22 23 23 24 26 27 28 29 30 32 33 34 35 35 35 36
16 17 17 17 18 18 19 19 19 20 20 20 21 21 21 22 22 22 22 23 23 23 23 23 22 22 22 22 22 23 25 26 27 28 29 30 31 32 33 34 34 34
17 17 17 18 18 19 19 20 20 21 21 22 22 22 22 22 23 23 23 24 24 24 24 23 23 23 23 23 23 23 24 25 26 28 29 30 30 30 31 32 32 32
17 17 18 18 19 19 19 20 20 21 21 22 22 22 22 22 22 22 22 23 24 24 24 24 24 24 24 24 24 24 24 25 27 28 29 30 30 30 31 31 31 31
17 18 18 19 19 20 20 20 21 21 22 22 22 22 22 22 22 22 22 22 23 23 24 23 23 23 23 23 24 24 24 26 28 30 30 30 31 31 31 30 30 30
18 18 19 20 20 20 21 21 21 22 22 23 23 22 23 23 22 23 22 22 22 23 24 23 22 23 23 23 24 24 24 26 29 29 30 30 30 30 30 30 30 30
20 20 20 20 21 21 21 21 21 21 22 22 23 22 22 23 22 22 23 23 22 23 24 24 22 22 24 24 24 24 25 28 29 29 29 30 30 30 30 30 30 29
21 21 21 21 21 21 21 21 21 21 21 23 23 23 23 23 23 23 23 23 23 23 24 24 23 22 23 24 24 24 25 28 29 30 30 30 29 29 29 29 29 29
21 21 22 22 22 22 22 22 22 22 22 23 24 25 25 25 25 25 25 24 24 24 25 26 25 24 24 25 25 25 26 28 30 30 31 30 30 30 29 29 29 29
21 22 22 22 22 22 22 22 22 23 23 24 24 25 26 26 26 27 26 25 25 25 25 25 26 25 24 25 25 25 25 27 29 31 31 31 31 31 30 29 29 29
21 22 23 22 23 23 22 21 22 23 23 24 24 25 26 26 26 27 27 26 24 24 24 24 25 25 24 24 24 24 25 26 28 29 30 31 31 31 31 30 29 28
Wind_Direction
231 233 237 240 242 244 245 248 250 252 251 254 260 268 275 275 273 274 272 267 263 260 260 262 262 263 264 263 263 264 265 266 266 266 264 262 261 259 258 257 256 256
230 233 236 239 241 242 243 243 245 247 247 247 248 252 257 259 259 265 269 268 266 266 265 266 267 268 269 268 266 265 265 265 264 265 266 265 264 262 261 260 258 257
232 236 239 242 242 243 245 246 247 248 250 250 250 252 253 253 254 257 260 263 262 263 264 265 267 268 270 271 271 269 269 269 268 268 266 265 264 263 263 263 261 260
243 245 246 248 248 249 250 252 254 256 260 262 262 263 263 263 263 262 262 262 261 259 258 258 259 259 260 263 266 269 271 272 272 271 268 266 265 265 265 265 264 262
258 258 257 258 258 259 260 261 264 266 269 270 269 269 270 270 270 270 269 269 269 268 266 263 262 260 258 259 261 265 268 270 272 272 270 268 266 265 265 265 265 265
266 266 266 266 267 268 268 268 269 270 270 271 271 272 273 273 273 274 274 275 275 275 274 272 269 266 263 261 261 262 264 265 268 269 269 269 269 268 268 269 269 268
269 270 269 270 270 269 269 269 269 270 270 270 271 272 273 274 274 275 276 276 277 276 275 275 274 273 271 268 265 264 264 263 264 264 265 269 271 271 271 271 271 271
263 264 263 264 266 266 268 268 268 270 271 272 276 278 280 282 284 285 285 284 282 280 279 279 279 279 277 275 274 271 269 267 265 264 264 266 267 268 268 269 270 270
243 247 251 256 260 265 269 270 273 276 278 281 285 287 291 293 294 294 294 293 291 288 287 286 285 284 283 281 280 278 276 274 271 269 267 266 265 264 265 265 265 266
235 245 258 268 272 276 278 279 282 284 286 288 289 290 292 292 291 291 290 289 288 287 286 285 283 283 282 281 280 279 278 276 274 273 271 270 268 267 265 263 263 264
250 264 274 279 282 283 285 286 288 289 290 291 291 290 289 288 287 286 285 284 284 283 283 283 282 282 281 280 279 278 277 276 275 274 273 272 272 271 269 267 266 266
272 279 284 287 289 289 289 290 290 290 291 291 291 290 290 289 289 289 289 289 288 287 287 286 285 285 284 283 281 280 279 279 278 277 275 274 273 273 272 271 270 269
290 294 296 298 298 298 298 297 297 297 297 297 297 296 296 295 295 294 293 292 291 290 289 288 288 286 285 285 284 284 283 282 281 279 278 277 275 274 273 272 271 270
304 305 305 304 303 303 304 304 304 303 303 302 302 301 301 300 300 298 297 296 295 293 292 291 290 289 288 286 285 283 282 280 279 279 278 278 277 277 275 274 274 272
312 310 308 307 306 306 306 306 305 304 304 303 302 302 302 302 302 302 301 300 299 298 298 297 296 295 293 291 288 286 283 281 279 278 278 277 277 277 276 276 276 275
312 310 309 309 308 308 308 307 307 306 305 305 304 304 304 303 303 303 303 301 300 299 298 299 299 298 296 295 293 291 289 286 284 282 280 279 278 278 277 277 277 277
312 311 310 311 310 310 310 310 311 310 310 310 309 309 308 307 307 307 305 303 303 302 301 300 300 299 299 298 296 294 292 291 290 288 285 283 283 282 281 281 280 280
312 310 310 310 309 309 309 309 310 310 310 309 308 308 307 306 307 307 306 305 304 304 303 303 302 301 300 300 299 297 296 295 293 291 289 288 288 287 287 286 285 284
308 308 308 307 307 307 307 307 307 307 306 305 304 304 304 303 304 303 303 303 303 303 303 303 304 303 302 301 300 299 299 297 294 292 292 293 293 293 293 292 291 289
306 306 307 307 306 306 306 305 305 304 304 303 304 305 303 303 303 302 302 302 302 301 301 302 303 303 302 301 299 298 298 294 292 292 293 295 296 297 297 297 296 294
305 305 305 304 304 303 303 303 303 304 304 303 304 305 305 304 304 303 302 302 302 302 302 302 304 303 302 300 299 298 296 292 291 292 293 294 295 297 298 298 298 298
304 303 303 302 302 302 302 303 304 305 304 304 304 305 304 305 305 304 304 304 304 304 303 303 304 303 300 299 298 297 294 291 291 291 292 292 293 295 296 296 297 298
302 302 303 302 302 303 304 305 307 307 307 306 306 306 306 306 306 306 307 307 307 306 305 304 304 303 300 298 298 297 294 292 291 292 291 291 292 292 293 293 295 296
300 301 301 301 302 304 306 309 310 310 310 310 309 309 309 310 309 309 309 309 309 308 307 306 305 304 302 299 298 297 295 293 293 293 293 292 292 292 292 293 294 295
298 298 299 301 303 304 306 309 310 309 309 310 310 311 311 311 310 309 308 308 307 306 305 304 303 302 300 298 297 296 294 293 292 292 292 293 293 292 292 292 292 293
297 297 298 299 301 302 305 308 309 309 309 310 309 309 308 308 308 306 305 305 305 304 303 302 301 300 298 297 296 295 293 291 291 291 292 293 293 292 292 292 291 291